Location: Pinhead Observatory
(34.4473°N, 118.1985°W)
Time: 01:24:51
(UTC-07:00)

Daily predictions for brighter satellites

Satellite Brightness Start Highest point End
(mag) Time Altitude Azimuth Time Altitude Azimuth Time Altitude Azimuth
Cosmos 1943 Rocket 4.0 00:37:57 24° NE 00:37:57 24° NE 00:40:10 10° NNE
Lacrosse 5 3.8 00:40:58 26° N 00:40:58 26° N 00:43:35 10° NNE
NOSS 3-1 (A) 4.1 00:44:04 10° NNW 00:51:05 75° NNW 00:51:05 75° NNW
ATLAS 2AS CENTAUR R/B 3.6 01:05:31 10° NNW 01:13:16 48° NE 01:14:24 45° ENE
Cosmos 2369 Rocket 4.2 01:36:21 19° NW 01:36:21 19° NW 01:39:49 10° NNW
Cosmos 2219 4.3 01:42:08 10° N 01:46:01 40° NNE 01:46:01 40° NNE
CZ-2C R/B 4.4 01:49:42 10° N 01:52:25 24° NW 01:52:25 24° NW
SeaSat 1 3.9 02:06:57 32° N 02:06:57 32° N 02:09:39 10° NNW
Cosmos 1943 Rocket 4.1 02:19:27 20° NW 02:19:27 20° NW 02:22:50 10° N
NPP 4.4 02:20:54 10° NNE 02:25:03 49° NE 02:25:03 49° NE
Resurs 1-4 Rocket 4.3 02:24:53 10° ENE 02:27:49 15° E 02:28:28 15° E
Cosmos 2233 Rocket 4.3 02:32:41 58° NNW 02:32:41 58° NNW 02:37:46 10° N
CZ-3A R/B 4.5 02:36:23 46° SSW 02:41:41 70° SE 02:47:53 10° NE
ARIANE 5 R/B 3.9 02:40:53 10° NE 02:45:22 30° E 02:45:27 30° E
ATLAS CENTAUR R/B 2.9 02:50:41 41° ENE 02:50:41 41° ENE 02:54:28 10° NE
Cosmos 1513 Rocket 4.5 02:57:30 65° ESE 02:57:57 68° E 03:03:58 10° NNE
Spot 4 Rocket 4.4 02:53:50 10° NNE 02:58:38 59° E 02:58:38 59° E
ATLAS 2AS CENTAUR R/B 4.0 02:57:02 10° NW 03:01:46 30° WNW 03:01:46 30° WNW
Cosmos 1072 Rocket 4.4 03:04:09 76° WSW 03:04:22 77° W 03:10:49 10° N
Cosmos 1656 4.0 03:04:27 57° ESE 03:04:39 57° ESE 03:10:13 10° NNE
Cosmos 2298 Rocket 4.3 03:04:09 10° N 03:09:26 65° ENE 03:10:01 60° ESE
IRS-1D 4.1 03:04:49 10° NNE 03:09:36 47° E 03:09:52 46° ESE
Cosmos 1814 Rocket 4.0 03:09:57 76° E 03:09:57 76° E 03:15:09 10° NNE
BREEZE-M DEB (TANK) 3.3 03:02:21 10° NW 03:09:19 55° N 03:09:19 55° N
CBERS-1 4.5 03:05:02 10° N 03:09:21 52° NW 03:09:21 52° NW
Cosmos 1891 Rocket 4.2 03:13:26 75° S 03:14:02 89° E 03:20:08 10° N
Okean O Rocket 4.1 03:17:29 10° ENE 03:19:58 15° E 03:22:08 11° SE
CZ-2D R/B 2.7 03:16:45 10° NNE 03:22:05 52° E 03:23:19 43° SE
Cosmos 1697 Rocket 2.9 03:21:22 53° SE 03:22:13 59° ESE 03:27:48 10° NNE
IRS-1C 4.4 03:18:26 10° N 03:23:29 54° WNW 03:23:29 54° WNW
ISS 0.4 03:23:58 10° NNE 03:24:22 10° NNE 03:24:44 10° NNE
Cosmos 2082 3.5 03:19:52 10° NNW 03:25:31 89° ENE 03:26:35 61° SSE
Cosmos 2034 Rocket 3.9 03:26:11 63° SW 03:27:07 75° W 03:33:20 10° N
SL-16 R/B 2.9 03:23:48 23° SSE 03:27:46 63° ENE 03:33:50 10° N
Meteor 2-5 Rocket 3.7 03:22:57 10° NNW 03:28:49 74° W 03:29:34 65° SSW
Cosmos 1980 Rocket 3.2 03:28:05 31° SE 03:29:52 39° ESE 03:35:05 10° NE
Cosmos 468 Rocket 4.3 03:37:08 47° WNW 03:37:12 47° WNW 03:42:12 10° N
Cosmos 2227 Rocket 2.1 03:31:41 10° NNW 03:37:19 67° WSW 03:37:55 62° SW
Cosmos 858 Rocket 4.4 03:32:25 10° NNW 03:37:40 86° WSW 03:38:44 58° S
Cosmos 2322 Rocket 4.5 03:37:13 10° SE 03:40:43 17° E 03:44:13 10° ENE
Cosmos-2242 4.2 03:39:47 29° SE 03:41:10 38° E 03:45:10 10° NNE
Cosmos 1408 Rocket 4.3 03:39:02 10° N 03:43:18 49° E 03:45:14 29° SE
Nadezhda 4 Rocket 3.9 03:38:31 10° N 03:44:44 84° E 03:48:11 28° S
Cosmos 1766 Rocket 4.4 03:40:45 10° N 03:45:00 47° E 03:47:19 24° SE
GEOS 3 Rocket 3.9 03:42:09 10° SE 03:47:19 66° NE 03:52:28 10° NNW
Cosmos 2150 Rocket 3.9 03:42:54 10° NNW 03:48:02 60° WSW 03:48:24 59° SW
Cosmos 1766 3.3 03:49:07 72° NW 03:49:07 72° NW 03:52:49 10° N
Cosmos 405 Rocket 4.3 03:46:54 10° NNW 03:49:01 25° NW 03:49:01 25° NW
UNK 3.6 03:50:28 48° S 03:51:46 88° WSW 03:56:29 10° NNW
Cosmos 2297 Rocket 2.1 03:53:25 10° NNW 03:59:00 63° WSW 04:01:30 32° S
Cosmos 1898 Rocket 3.8 03:56:28 10° NNW 04:01:31 44° WSW 04:01:53 43° WSW
Cosmos 1758 3.5 04:03:14 43° SSE 04:04:26 70° E 04:08:26 10° NNE
UNKNOWN OBJECT B 2.6 04:01:13 10° N 04:05:08 77° WNW 04:05:36 65° SW
Resurs 1-4 Rocket 2.3 04:02:48 10° N 04:07:56 54° WNW 04:09:33 39° SW
MTI 3.9 04:08:10 50° SE 04:08:53 72° ENE 04:12:09 10° N
Cosmos 1378 3.0 04:05:38 10° NNW 04:09:23 68° W 04:09:46 62° SW
Cosmos 841 Rocket 3.6 04:08:27 41° SW 04:10:04 59° WNW 04:15:18 10° N
Cosmos 1953 2.2 04:09:14 46° S 04:10:24 88° E 04:14:29 10° N
SL-16 R/B 3.7 04:07:29 10° SSE 04:12:25 32° ESE 04:17:22 10° NE
EO 1 Del DPAF 3.3 04:13:19 52° SW 04:13:42 55° W 04:17:31 10° NNW
Cosmos 1634 Rocket 3.9 04:11:17 24° S 04:15:13 83° W 04:21:32 10° N
Cosmos 1937 Rocket 3.7 04:10:58 10° NNW 04:15:53 45° WSW 04:17:36 33° SSW
Cosmos 1763 Rocket 4.0 04:16:14 33° WSW 04:17:50 43° WNW 04:22:47 10° N
Meteor 1-24 Rocket 4.1 04:13:07 10° NNW 04:18:35 46° W 04:21:15 28° SSW
Cosmos 1437 3.8 04:18:59 10° N 04:22:13 46° E 04:25:26 10° SSE
Cosmos 1805 3.1 04:21:15 40° SSW 04:22:33 72° W 04:26:28 10° N
ARIANE 5 R/B 3.7 04:20:04 10° NNW 04:24:21 27° WNW 04:25:48 24° W
Cosmos 2195 Rocket 4.5 04:20:37 10° N 04:26:46 83° E 04:32:51 10° S
NOSS 3-4 (A) 3.8 04:20:04 10° NW 04:27:07 70° WSW 04:34:34 10° SSE
NOSS 3-4 (C) 3.8 04:20:10 10° NW 04:27:16 71° WSW 04:34:44 10° SSE
CZ-2D R/B 3.7 04:23:04 10° N 04:27:21 58° WNW 04:29:17 30° SW
PAYLOAD B 4.4 04:21:47 10° NNE 04:27:25 74° ESE 04:32:21 13° S
Cosmos 1441 Rocket 3.5 04:24:15 10° NNW 04:28:06 48° W 04:29:28 33° SSW
ATLAS CENTAUR R/B 3.5 04:27:01 17° W 04:28:58 21° NW 04:32:47 10° N
GPS 2-04 Rocket1 2.7 04:28:13 26° W 04:30:17 72° N 04:34:04 10° E
Cosmos 1092 Rocket 4.2 04:26:44 10° NNW 04:32:49 53° W 04:38:12 14° SSW
Cosmos 1733 4.5 04:31:01 10° SSE 04:34:33 39° E 04:38:07 10° NNE
OAO 1 4.5 04:30:19 16° W 04:34:43 87° N 04:40:13 10° E
CZ-4B R/B 3.2 04:30:31 10° NNE 04:36:04 85° ESE 04:41:03 12° SSW
Cosmos 1627 Rocket 4.4 04:31:25 10° N 04:37:44 81° W 04:43:55 10° S
Thor Agena Rocket 4.0 04:33:19 10° SSE 04:38:17 61° ENE 04:43:16 10° N
MOZ.5/SAFIR/RUBIN 5/SL-8 3.8 04:35:02 10° SSE 04:39:45 86° ENE 04:44:29 10° N
Cosmos 2227 4.4 04:38:49 10° NNW 04:44:36 77° ENE 04:50:20 10° SSE
RESURS DK-1 4.4 04:40:58 10° N 04:44:40 31° ENE 04:48:21 10° SE
Aureole 1 Rocket 4.0 04:41:09 13° SSW 04:45:57 83° ESE 04:53:02 10° NNE
Milstar 3 Cent rocket 3.0 04:45:39 19° WSW 04:49:40 53° S 04:59:22 10° ESE
ASTRO E2 3.3 04:48:09 23° WSW 04:50:03 36° SSW 04:53:47 10° SE
Cosmos 540 Rocket 3.5 04:46:37 17° SSW 04:50:35 67° WNW 04:55:46 10° NNE
Meteor 1-21 Rocket 4.3 04:46:34 10° NNW 04:52:25 64° W 04:58:15 10° S
Cosmos 1500 Rocket 3.5 04:49:14 10° N 04:53:38 80° W 04:57:58 10° S
Okean O Rocket 2.2 04:52:22 10° N 04:56:27 39° WNW 04:59:36 16° SW
Cosmos 332 Rocket 3.9 04:53:40 16° SSW 04:57:29 60° WNW 05:02:16 10° N
Cosmos 1743 Rocket 3.8 04:53:52 10° NNW 04:58:01 45° W 05:02:09 10° SSW
SL-24 R/B - RUBIN 2 4.3 04:54:24 15° SSW 04:59:07 80° WNW 05:05:24 10° NNE
Cosmos 2151 3.9 04:56:26 10° N 05:00:40 52° E 05:04:51 10° SSE
ISS -3.0 04:58:04 10° NW 05:01:18 69° NE 05:04:32 10° SE
CZ-2D R/B 3.8 04:58:09 10° NNW 05:01:40 18° WNW 05:04:39 12° W
Cosmos 1428 Rocket 4.5 04:56:02 10° N 05:02:13 89° E 05:08:19 10° S
BREEZE-M DEB (TANK) 4.3 04:46:31 11° SW 05:04:06 76° SE 05:08:36 10° NE
Cosmos 1544 3.9 05:02:04 16° SW 05:04:25 32° W 05:07:43 10° NNW
Cosmos 1697 Rocket 4.4 05:03:07 11° W 05:06:35 17° WNW 05:10:17 10° NNW
CZ-4B R/B 3.4 05:07:15 10° N 05:10:54 37° WNW 05:14:16 11° SW
Cosmos 2279 Rocket 4.3 05:05:43 10° SSW 05:11:44 49° W 05:17:47 10° N
SL-16 R/B 3.9 05:08:53 12° WSW 05:11:45 17° W 05:15:30 10° NW
CSL-04 DEB 4.4 05:09:20 10° NNE 05:13:17 82° ESE 05:17:13 10° SSW
Cosmos 1674 2.7 05:10:01 10° NNW 05:13:43 56° W 05:17:23 10° S
Cosmos 1980 Rocket 3.5 05:09:52 12° WSW 05:13:56 25° WNW 05:18:32 10° N
Cosmos 2360 Rocket 3.5 05:09:10 10° S 05:14:22 41° ESE 05:19:36 10° NE
Cosmos 1470 3.4 05:13:43 10° SSW 05:17:21 37° W 05:21:03 10° N
Cosmos 371 Rocket 3.5 05:13:29 10° SSW 05:18:12 56° WNW 05:22:56 10° N
Cosmos 2221 2.6 05:15:18 10° S 05:19:33 85° E 05:23:51 10° N
ADEOS II 2.2 05:15:29 10° NNE 05:20:46 84° ESE 05:26:01 10° SSW
Cosmos 2322 Rocket 2.5 05:18:46 10° SW 05:24:14 53° WNW 05:29:43 10° N
DELTA 2 R/B (1) 3.9 05:19:54 10° SW 05:25:22 59° SSE 05:30:52 10° ENE
CZ-3 Stage 3 3.5 05:11:07 10° W 05:35:15 57° SSW 05:40:05 10° SE
